Regional Weather Roundup
Issued by NWS

Home | Current Version | Previous Version | Text Only | Print | Product List | Glossary Off
Versions: 1 2 3 4 5 6 7 8 9 10 11 12 13 14 15 16 17 18 19 20 21 22 23 24 25 26 27 28 29 30 31 32 33 34 35 36 37 38 39 40 41 42 43 44 45 46 47 48 49 50

000
ASUS45 KBOU 270310
RWRCO

WEATHER ROUNDUP FOR COLORADO
NATIONAL WEATHER SERVICE DENVER/BOULDER CO
900 PM MDT MON SEP 26 2016

NOTE: "FAIR" INDICATES FEW OR NO CLOUDS BELOW 12000 FEET WITH NO
SIGNIFICANT WEATHER AND/OR OBSTRUCTIONS TO VISIBILITY.

COZ001>005-013-030-031-270400-
...NORTHWEST COLORADO...

CITY           SKY/WX    TMP DP  RH WIND       PRES   REMARKS
CRAIG          FAIR      48  37  65 SW7       30.37S
HAYDEN         FAIR      54  30  40 S8        30.39R
MEEKER         FAIR      53  39  59 SW5       30.37R
MOUNT WERNER   NOT AVBL
STEAMBOAT SPGS FAIR      52  35  52 SE3       30.40S
WALDEN           N/A     50  30  46 N8        30.49R
$$

COZ006>008-011-270400-
...WEST CENTRAL VALLEYS...

CITY           SKY/WX    TMP DP  RH WIND       PRES   REMARKS
GRAND JUNCTION FAIR      62  38  40 N6        30.24S
MONTROSE       FAIR      56  40  55 SE9       30.34R
EAGLE          FAIR      57  32  38 E7        30.38R
RIFLE          FAIR      57  42  57 S6        30.30R
DELTA          NOT AVBL
NUCLA          FAIR      64  32  29 W5        30.35S
$$

COZ017>023-064>068-270400-
...SOUTHWEST COLORADO...

CITY           SKY/WX    TMP DP  RH WIND       PRES   REMARKS
DURANGO        FAIR      57  34  41 NW3       30.35R
CORTEZ         FAIR      53  41  63 E7        30.31R
PAGOSA SPRINGS FAIR      52  35  52 CALM      30.42R
TELLURIDE      FAIR      52  36  53 CALM      30.53R
WOLF CREEK PAS FAIR      41  28  60 MISG      30.69S
$$

COZ009-010-012-014-032>034-037-058>063-270400-
...CENTRAL COLORADO...

CITY           SKY/WX    TMP DP  RH WIND       PRES   REMARKS
ASPEN          FAIR      49  35  58 S9        30.43R
BUENA VISTA    FAIR      56  22  26 CALM      30.47R
COPPER MTN     FAIR      46  19  34 CALM      30.70R
BERTHOUD PASS  FAIR      37  27  65 N9        30.72S
COTTONWOOD PAS FAIR      54  19  26 SE15      30.57R
GUNNISON       FAIR      52  34  50 S6        30.41R
KREMMLING      FAIR      54  25  32 SW5       30.43R
LEADVILLE      FAIR      46  22  38 CALM      30.55R
MONARCH PASS   FAIR      41  23  48 NE15      30.78R
SALIDA         FAIR      61  24  24 SE12G18   30.50R
SUNLIGHT       FAIR      50  30  46 NW3       30.64S
WILKERSON PASS FAIR      41  25  52 E8        30.68R
$$

COZ069>075-270400-
...SAN LUIS VALLEY/SANGRE DE CRISTO MOUNTAINS...

CITY           SKY/WX    TMP DP  RH WIND       PRES   REMARKS
ALAMOSA        FAIR      54  30  40 SE7       30.39R
LA VETA PASS   FAIR      45  30  57 MISG      30.58S
SAGUACHE       NOT AVBL
$$

COZ035-036-038>040-270400-
...NORTHERN COLORADO FRONT RANGE...

CITY           SKY/WX    TMP DP  RH WIND       PRES   REMARKS
DENVER INTL AP FAIR      60  28  29 SE6       30.32S
DMNS CITY PARK   N/A     58  37  46 SW2       30.33R
AURORA         PTCLDY    59  30  33 SE9       30.34R
FRONT RANGE AP PTCLDY   N/A N/A N/A S6        30.33S
ERIE MUNI ARPT FAIR      55  33  43 CALM      30.32R
BOULDER MUN AP FAIR      61  34  36 SW3       30.32R
CENTENNIAL     FAIR      57  30  35 S7        30.35R
BROOMFIELD     CLEAR    N/A N/A N/A CALM      30.35R
FORT COLLINS   FAIR      59  34  38 S3        30.31R
LONGMONT       FAIR      57  36  44 CALM      30.33R
$$

COZ041-046-047-076>085-087-088-270400-
...PIKES PEAK/PALMER DIVIDE AND SOUTHERN FOOTHILLS...

CITY           SKY/WX    TMP DP  RH WIND       PRES   REMARKS
COLO. SPRINGS  FAIR      59  28  30 CALM      30.38S
A. F. ACADEMY  FAIR      52  29  42 N6        30.39R
SCHRIEVER AFB  NOT AVBL
ELLICOTT       NOT AVBL
FALCON         FAIR      53  29  40 SW5       30.42S
FORT CARSON    FAIR      61  29  29 SW7       30.35R
LIMON          FAIR      49  28  44 N5        30.33R
MONUMENT HILL  FAIR      50  28  43 SE8       30.44R
TRINIDAD       FAIR      54  34  46 NW7       30.33R
$$

COZ042>045-048>051-090-091-270400-
...NORTHEAST COLORADO...

CITY           SKY/WX    TMP DP  RH WIND       PRES   REMARKS
GREELEY ARPT   FAIR      59  39  47 NE7       30.31R
AKRON          FAIR      57  37  47 E7        30.30R
BURLINGTON     FAIR      61  36  39 E5        30.27S
WRAY           NOT AVBL
STERLING       FAIR      54  39  58 CALM      30.26S
HOLYOKE        FAIR      54  41  62 W6        30.25S
FORT MORGAN    FAIR      56  36  46 NE9       30.30R
$$

COZ086-089-092>099-270400-
...SOUTHEAST COLORADO...

CITY           SKY/WX    TMP DP  RH WIND       PRES   REMARKS
PUEBLO         FAIR      60  31  33 E7        30.28R
LA JUNTA       FAIR      64  32  30 SE5       30.26S
LAMAR          FAIR      56  32  40 S6        30.22F
SPRINGFIELD    NOT AVBL
$$



USA.gov is the U.S. government's official web portal to all federal, state and local government web resources and services.